Location: Leipzig
(51.3392°N, 12.3528°E)
Time: 22:59:44
(UTC+02:00)

ISS - Visible Passes

Search period start: 25 September 2020 00:00
Search period end: 05 October 2020 00:00
Orbit: 419 x 420 km, 51.6° (Epoch: 26 September)

Date Brightness Start Highest point End Pass type
(mag) Time Alt. Az. Time Alt. Az. Time Alt. Az.
25 Sep -3.9 20:58:29 10° W 21:01:52 83° N 21:02:08 73° ENE visible
26 Sep -3.8 20:11:06 10° W 20:14:29 84° N 20:16:31 22° E visible
26 Sep -1.5 21:47:57 10° W 21:49:28 25° W 21:49:28 25° W visible
27 Sep -3.7 19:23:41 10° W 19:27:04 89° N 19:30:27 10° E visible
27 Sep -3.8 21:00:32 10° W 21:03:50 81° SW 21:03:50 81° SW visible
28 Sep -3.8 20:13:07 10° W 20:16:31 88° N 20:18:11 27° E visible
28 Sep -1.1 21:50:00 10° W 21:51:09 19° W 21:51:09 19° W visible
29 Sep -3.7 19:25:41 10° W 19:29:04 83° N 19:32:28 10° E visible
29 Sep -3.2 21:02:32 10° W 21:05:30 51° SW 21:05:30 51° SW visible
30 Sep -3.7 20:15:05 10° W 20:18:27 69° SSW 20:19:53 31° ESE visible
30 Sep -0.7 21:52:16 10° W 21:52:51 13° W 21:52:51 13° W visible
01 Oct -3.7 19:27:39 10° W 19:31:02 83° SSW 19:34:17 11° ESE visible
01 Oct -2.2 21:04:37 10° W 21:07:15 28° SW 21:07:15 28° SW visible
02 Oct -2.8 20:17:04 10° W 20:20:15 40° SSW 20:21:42 25° SSE visible
03 Oct -3.2 19:29:34 10° W 19:32:52 53° SSW 19:36:10 10° SE visible
03 Oct -1.2 21:07:10 10° WSW 21:09:08 15° SW 21:09:10 15° SW visible
04 Oct -1.6 20:19:15 10° W 20:21:52 21° SW 20:23:44 14° S visible
